Station Historical Data
 
Daily Summary for August 24, 2019 Units:  Metric    English   Both
« Previous Day
Next Day »
Daily Weekly Monthly Yearly Custom
  Current: High: Low: Average:
Temperature: 30.3 °C 30.8 °C 22.3 °C 24.7 °C
Dew Point: 19.9 °C 21.1 °C 14.6 °C 18.9 °C
Humidity: 54% 83% 52% 71%
Wind Speed: 4.8km/h 11.3km/h 1.6km/h 5.6km/h
Wind Gust: 8.0km/h 22.5km/h - -
WindNE - - West
Pressure: 1016.4 hPa 1017.0 hPa 1015.8 hPa -
Precipitation: 0.0 mm      
Historical Graphs
 
 
Tabular Data for August 24, 2019
Time Temperature Dew Point Pressure Wind Wind Speed Wind Gust Humidity Rainfall Rate (Hourly) solar Conditions
00:00 23.7 °C 14.7 °C 1016.5 hPa NNW 4.8 km/h 9.7 km/h 57% 0.0 mm 0.00 W/m2 CLR
00:05 23.6 °C 14.6 °C 1016.5 hPa NNW 3.2 km/h 8.0 km/h 57% 0.0 mm 0.00 W/m2 CLR
00:10 23.6 °C 14.6 °C 1016.4 hPa NNW 8.0 km/h 12.9 km/h 57% 0.0 mm 0.00 W/m2 CLR
00:15 23.6 °C 14.8 °C 1016.4 hPa NNW 4.8 km/h 8.0 km/h 58% 0.0 mm 0.00 W/m2 CLR
00:20 23.6 °C 14.8 °C 1016.4 hPa NNW 4.8 km/h 9.7 km/h 58% 0.0 mm 0.00 W/m2 CLR
00:25 23.5 °C 14.8 °C 1016.4 hPa NNW 4.8 km/h 12.9 km/h 58% 0.0 mm 0.00 W/m2 CLR
00:30 23.5 °C 14.8 °C 1016.3 hPa North 4.8 km/h 12.9 km/h 58% 0.0 mm 0.00 W/m2 CLR
00:35 23.4 °C 14.7 °C 1016.3 hPa North 8.0 km/h 9.7 km/h 58% 0.0 mm 0.00 W/m2 CLR
00:40 23.4 °C 14.7 °C 1016.3 hPa North 8.0 km/h 12.9 km/h 58% 0.0 mm 0.00 W/m2 CLR
00:45 23.4 °C 14.9 °C 1016.3 hPa North 8.0 km/h 12.9 km/h 59% 0.0 mm 0.00 W/m2 CLR
00:50 23.4 °C 15.2 °C 1016.3 hPa NNW 8.0 km/h 14.5 km/h 60% 0.0 mm 0.00 W/m2 CLR
00:55 23.4 °C 15.4 °C 1016.3 hPa NNW 8.0 km/h 12.9 km/h 61% 0.0 mm 0.00 W/m2 CLR
01:00 23.4 °C 15.5 °C 1016.4 hPa North 4.8 km/h 12.9 km/h 61% 0.0 mm 0.00 W/m2 CLR
01:05 23.4 °C 15.7 °C 1016.4 hPa North 8.0 km/h 12.9 km/h 62% 0.0 mm 0.00 W/m2 CLR
01:10 23.3 °C 15.7 °C 1016.5 hPa North 4.8 km/h 8.0 km/h 62% 0.0 mm 0.00 W/m2 CLR
01:15 23.3 °C 15.6 °C 1016.6 hPa North 4.8 km/h 9.7 km/h 62% 0.0 mm 0.00 W/m2 CLR
01:20 23.3 °C 15.8 °C 1016.6 hPa North 4.8 km/h 6.4 km/h 63% 0.0 mm 0.00 W/m2 CLR
01:25 23.2 °C 16.1 °C 1016.7 hPa North 4.8 km/h 11.3 km/h 64% 0.0 mm 0.00 W/m2 CLR
01:30 23.2 °C 16.0 °C 1016.7 hPa North 3.2 km/h 9.7 km/h 64% 0.0 mm 0.00 W/m2 CLR
01:35 23.2 °C 16.2 °C 1016.8 hPa North 8.0 km/h 12.9 km/h 65% 0.0 mm 0.00 W/m2 CLR
01:40 23.1 °C 16.1 °C 1016.8 hPa North 8.0 km/h 14.5 km/h 65% 0.0 mm 0.00 W/m2 CLR
01:45 23.0 °C 16.1 °C 1016.8 hPa North 4.8 km/h 9.7 km/h 65% 0.0 mm 0.00 W/m2 CLR
01:50 23.0 °C 16.3 °C 1016.8 hPa North 8.0 km/h 12.9 km/h 66% 0.0 mm 0.00 W/m2 CLR
01:55 23.0 °C 16.3 °C 1016.8 hPa North 8.0 km/h 11.3 km/h 66% 0.0 mm 0.00 W/m2 CLR
02:00 23.0 °C 16.6 °C 1016.8 hPa NNW 8.0 km/h 9.7 km/h 67% 0.0 mm 0.00 W/m2 CLR
02:05 23.0 °C 16.8 °C 1016.8 hPa NNW 4.8 km/h 12.9 km/h 68% 0.0 mm 0.00 W/m2 CLR
02:10 23.0 °C 16.8 °C 1016.8 hPa NNW 4.8 km/h 9.7 km/h 68% 0.0 mm 0.00 W/m2 CLR
02:15 23.0 °C 17.0 °C 1016.8 hPa NNW 4.8 km/h 12.9 km/h 69% 0.0 mm 0.00 W/m2 CLR
02:20 22.9 °C 16.9 °C 1016.8 hPa North 4.8 km/h 9.7 km/h 69% 0.0 mm 0.00 W/m2 CLR
02:25 22.9 °C 16.9 °C 1016.8 hPa NNW 4.8 km/h 9.7 km/h 69% 0.0 mm 0.00 W/m2 CLR
02:30 22.8 °C 17.1 °C 1016.7 hPa North 4.8 km/h 9.7 km/h 70% 0.0 mm 0.00 W/m2 CLR
02:35 22.8 °C 17.0 °C 1016.7 hPa NNW 4.8 km/h 9.7 km/h 70% 0.0 mm 0.00 W/m2 CLR
02:40 22.8 °C 17.2 °C 1016.7 hPa NNW 8.0 km/h 12.9 km/h 71% 0.0 mm 0.00 W/m2 CLR
02:45 22.8 °C 17.2 °C 1016.7 hPa NNW 8.0 km/h 9.7 km/h 71% 0.0 mm 0.00 W/m2 CLR
02:50 22.8 °C 17.7 °C 1016.7 hPa NW 4.8 km/h 14.5 km/h 73% 0.0 mm 0.00 W/m2 CLR
02:55 22.9 °C 18.1 °C 1016.6 hPa NNW 4.8 km/h 12.9 km/h 74% 0.0 mm 0.00 W/m2 CLR
03:00 22.9 °C 18.3 °C 1016.5 hPa NNW 8.0 km/h 14.5 km/h 75% 0.0 mm 0.00 W/m2 CLR
03:05 23.0 °C 18.3 °C 1016.5 hPa NNW 3.2 km/h 11.3 km/h 75% 0.0 mm 0.00 W/m2 CLR
03:10 23.1 °C 18.7 °C 1016.5 hPa NNW 3.2 km/h 12.9 km/h 76% 0.0 mm 0.00 W/m2 CLR
03:15 23.1 °C 18.8 °C 1016.5 hPa NNW 1.6 km/h 9.7 km/h 77% 0.0 mm 0.00 W/m2 CLR
03:20 23.1 °C 18.9 °C 1016.5 hPa NNW 8.0 km/h 11.3 km/h 77% 0.0 mm 0.00 W/m2 CLR
03:25 23.1 °C 18.8 °C 1016.5 hPa NNW 8.0 km/h 19.3 km/h 77% 0.0 mm 0.00 W/m2 CLR
03:30 23.1 °C 19.1 °C 1016.5 hPa NNW 4.8 km/h 12.9 km/h 78% 0.0 mm 0.00 W/m2 CLR
03:35 23.1 °C 19.1 °C 1016.4 hPa NNW 3.2 km/h 12.9 km/h 78% 0.0 mm 0.00 W/m2 CLR
03:40 23.1 °C 19.3 °C 1016.4 hPa NW 4.8 km/h 9.7 km/h 79% 0.0 mm 0.00 W/m2 CLR
03:45 23.1 °C 19.3 °C 1016.4 hPa NW 4.8 km/h 12.9 km/h 79% 0.0 mm 0.00 W/m2 CLR
03:50 23.1 °C 19.3 °C 1016.3 hPa NNW 4.8 km/h 12.9 km/h 79% 0.0 mm 0.00 W/m2 CLR
03:55 23.1 °C 19.3 °C 1016.3 hPa NW 1.6 km/h 9.7 km/h 79% 0.0 mm 0.00 W/m2 CLR
04:00 23.1 °C 19.2 °C 1016.3 hPa NW 1.6 km/h 8.0 km/h 79% 0.0 mm 0.00 W/m2 CLR
04:05 23.1 °C 19.2 °C 1016.3 hPa NW 3.2 km/h 6.4 km/h 79% 0.0 mm 0.00 W/m2 CLR
04:10 23.0 °C 19.4 °C 1016.3 hPa NW 4.8 km/h 9.7 km/h 80% 0.0 mm 0.00 W/m2 CLR
04:15 23.0 °C 19.4 °C 1016.2 hPa NW 3.2 km/h 12.9 km/h 80% 0.0 mm 0.00 W/m2 CLR
04:20 22.9 °C 19.3 °C 1016.2 hPa NNW 4.8 km/h 12.9 km/h 80% 0.0 mm 0.00 W/m2 CLR
04:25 22.9 °C 19.3 °C 1016.2 hPa NNW 1.6 km/h 8.0 km/h 80% 0.0 mm 0.00 W/m2 CLR
04:30 22.9 °C 19.3 °C 1016.2 hPa NW 3.2 km/h 8.0 km/h 80% 0.0 mm 0.00 W/m2 CLR
04:35 22.8 °C 19.2 °C 1016.1 hPa NW 3.2 km/h 8.0 km/h 80% 0.0 mm 0.00 W/m2 CLR
04:40 22.8 °C 19.2 °C 1016.1 hPa NW 3.2 km/h 8.0 km/h 80% 0.0 mm 0.00 W/m2 CLR
04:45 22.8 °C 19.2 °C 1016.1 hPa NW 4.8 km/h 9.7 km/h 80% 0.0 mm 0.00 W/m2 CLR
04:50 22.7 °C 19.1 °C 1016.1 hPa NNW 3.2 km/h 12.9 km/h 80% 0.0 mm 0.00 W/m2 CLR
04:55 22.7 °C 19.1 °C 1016.0 hPa NNW 3.2 km/h 14.5 km/h 80% 0.0 mm 0.00 W/m2 CLR
05:00 22.7 °C 19.2 °C 1016.0 hPa NNW 4.8 km/h 14.5 km/h 81% 0.0 mm 0.00 W/m2 CLR
05:05 22.7 °C 19.3 °C 1016.0 hPa NNW 3.2 km/h 6.4 km/h 81% 0.0 mm 0.00 W/m2 CLR
05:10 22.7 °C 19.2 °C 1016.0 hPa North 3.2 km/h 9.7 km/h 81% 0.0 mm 0.00 W/m2 CLR
05:15 22.6 °C 19.2 °C 1015.9 hPa North 4.8 km/h 6.4 km/h 81% 0.0 mm 0.00 W/m2 CLR
05:20 22.4 °C 18.8 °C 1015.9 hPa NNW 4.8 km/h 9.7 km/h 80% 0.0 mm 0.00 W/m2 CLR
05:25 22.4 °C 18.9 °C 1015.9 hPa NNW 4.8 km/h 12.9 km/h 81% 0.0 mm 0.00 W/m2 CLR
05:30 22.4 °C 19.2 °C 1015.8 hPa North 4.8 km/h 9.7 km/h 82% 0.0 mm 0.00 W/m2 CLR
05:35 22.4 °C 19.2 °C 1015.9 hPa North 3.2 km/h 8.0 km/h 82% 0.0 mm 0.00 W/m2 CLR
05:40 22.4 °C 19.2 °C 1016.0 hPa NW 3.2 km/h 11.3 km/h 82% 0.0 mm 0.00 W/m2 CLR
05:45 22.4 °C 19.4 °C 1015.9 hPa NW 1.6 km/h 9.7 km/h 83% 0.0 mm 0.00 W/m2 CLR
05:50 22.5 °C 19.5 °C 1015.9 hPa NNW 3.2 km/h 12.9 km/h 83% 0.0 mm 0.00 W/m2 CLR
05:55 22.6 °C 19.5 °C 1015.9 hPa NNW 3.2 km/h 11.3 km/h 83% 0.0 mm 0.00 W/m2 CLR
06:00 22.5 °C 19.4 °C 1015.9 hPa NNW 3.2 km/h 9.7 km/h 83% 0.0 mm 0.00 W/m2 CLR
06:05 22.5 °C 19.4 °C 1015.9 hPa NNW 3.2 km/h 12.9 km/h 83% 0.0 mm 0.00 W/m2 CLR
06:10 22.5 °C 19.4 °C 1016.0 hPa NW 4.8 km/h 9.7 km/h 83% 0.0 mm 0.00 W/m2 CLR
06:15 22.5 °C 19.4 °C 1015.9 hPa NW 4.8 km/h 12.9 km/h 83% 0.0 mm 0.00 W/m2 CLR
06:20 22.6 °C 19.5 °C 1015.9 hPa NNW 3.2 km/h 9.7 km/h 83% 0.0 mm 0.00 W/m2 CLR
06:25 22.4 °C 19.4 °C 1016.0 hPa NNW 3.2 km/h 11.3 km/h 83% 0.0 mm 0.00 W/m2 CLR
06:30 22.4 °C 19.4 °C 1015.9 hPa NNW 1.6 km/h 8.0 km/h 83% 0.0 mm 0.00 W/m2 CLR
06:35 22.4 °C 19.4 °C 1016.0 hPa NW 3.2 km/h 6.4 km/h 83% 0.0 mm 0.00 W/m2 CLR
06:40 22.4 °C 19.3 °C 1016.0 hPa NNW 9.7 km/h 14.5 km/h 83% 0.0 mm 0.00 W/m2 CLR
06:45 22.4 °C 19.3 °C 1016.0 hPa NNW 4.8 km/h 12.9 km/h 83% 0.0 mm 0.00 W/m2 CLR
06:50 22.4 °C 19.3 °C 1016.0 hPa NNW 8.0 km/h 12.9 km/h 83% 0.0 mm 0.00 W/m2 CLR
06:55 22.4 °C 19.2 °C 1016.1 hPa NNW 4.8 km/h 8.0 km/h 82% 0.0 mm 0.00 W/m2 CLR
07:00 22.4 °C 19.2 °C 1016.0 hPa NW 4.8 km/h 14.5 km/h 82% 0.0 mm 0.00 W/m2 OVC
07:05 22.3 °C 19.1 °C 1016.1 hPa NW 4.8 km/h 12.9 km/h 82% 0.0 mm 0.00 W/m2 OVC
07:10 22.3 °C 19.1 °C 1016.2 hPa NNW 4.8 km/h 14.5 km/h 82% 0.0 mm 0.00 W/m2 OVC
07:15 22.3 °C 19.1 °C 1016.1 hPa NNW 4.8 km/h 9.7 km/h 82% 0.0 mm 0.00 W/m2 OVC
07:20 22.3 °C 19.1 °C 1016.1 hPa NNW 4.8 km/h 8.0 km/h 82% 0.0 mm 0.00 W/m2 OVC
07:25 22.3 °C 19.1 °C 1016.1 hPa NNW 4.8 km/h 9.7 km/h 82% 0.0 mm 8.40 W/m2 OVC
07:30 22.3 °C 19.1 °C 1016.1 hPa NNW 3.2 km/h 14.5 km/h 82% 0.0 mm 13.20 W/m2 CLR
07:35 22.3 °C 19.1 °C 1016.1 hPa NNW 4.8 km/h 12.9 km/h 82% 0.0 mm 16.80 W/m2 CLR
07:40 22.3 °C 18.9 °C 1016.1 hPa NNW 4.8 km/h 8.0 km/h 81% 0.0 mm 21.60 W/m2 FEW
07:45 22.3 °C 18.9 °C 1016.1 hPa NNW 4.8 km/h 9.7 km/h 81% 0.0 mm 25.20 W/m2 SCT
07:50 22.3 °C 18.9 °C 1016.2 hPa North 8.0 km/h 12.9 km/h 81% 0.0 mm 31.20 W/m2 SCT
07:55 22.3 °C 18.9 °C 1016.2 hPa NNW 4.8 km/h 9.7 km/h 81% 0.0 mm 42.00 W/m2 SCT
08:00 22.3 °C 18.9 °C 1016.2 hPa North 8.0 km/h 12.9 km/h 81% 0.0 mm 56.40 W/m2 FEW
08:05 22.3 °C 18.9 °C 1016.2 hPa NNW 4.8 km/h 12.9 km/h 81% 0.0 mm 74.40 W/m2 FEW
08:10 22.4 °C 19.2 °C 1016.3 hPa North 4.8 km/h 12.9 km/h 82% 0.0 mm 91.20 W/m2 CLR
08:15 22.5 °C 19.1 °C 1016.3 hPa North 4.8 km/h 12.9 km/h 81% 0.0 mm 105.60 W/m2 CLR
08:20 22.6 °C 19.3 °C 1016.3 hPa North 3.2 km/h 14.5 km/h 82% 0.0 mm 124.80 W/m2 CLR
08:25 22.7 °C 19.2 °C 1016.4 hPa North 4.8 km/h 11.3 km/h 81% 0.0 mm 145.20 W/m2 CLR
08:30 22.7 °C 19.3 °C 1016.4 hPa North 3.2 km/h 9.7 km/h 81% 0.0 mm 166.80 W/m2 CLR
08:35 22.8 °C 19.4 °C 1016.5 hPa North 4.8 km/h 12.9 km/h 81% 0.0 mm 189.60 W/m2 CLR
08:40 23.0 °C 19.6 °C 1016.4 hPa NNW 1.6 km/h 9.7 km/h 81% 0.0 mm 214.80 W/m2 CLR
08:45 23.2 °C 19.8 °C 1016.5 hPa North 3.2 km/h 9.7 km/h 81% 0.0 mm 236.40 W/m2 CLR
08:50 23.4 °C 19.8 °C 1016.5 hPa North 3.2 km/h 6.4 km/h 80% 0.0 mm 256.80 W/m2 CLR
08:55 23.7 °C 20.1 °C 1016.5 hPa North 4.8 km/h 11.3 km/h 80% 0.0 mm 280.80 W/m2 CLR
09:00 23.9 °C 20.1 °C 1016.5 hPa North 3.2 km/h 6.4 km/h 79% 0.0 mm 301.20 W/m2 CLR
09:05 24.2 °C 20.1 °C 1016.5 hPa North 1.6 km/h 16.1 km/h 78% 0.0 mm 318.00 W/m2 CLR
09:10 24.5 °C 20.4 °C 1016.5 hPa North 4.8 km/h 9.7 km/h 78% 0.0 mm 342.00 W/m2 CLR
09:15 24.7 °C 20.4 °C 1016.5 hPa NNW 8.0 km/h 16.1 km/h 77% 0.0 mm 362.40 W/m2 CLR
09:20 24.9 °C 20.4 °C 1016.5 hPa NNW 3.2 km/h 16.1 km/h 76% 0.0 mm 384.00 W/m2 CLR
09:25 25.2 °C 20.4 °C 1016.5 hPa NNW 8.0 km/h 19.3 km/h 75% 0.0 mm 398.40 W/m2 CLR
09:30 25.4 °C 20.4 °C 1016.5 hPa North 4.8 km/h 22.5 km/h 74% 0.0 mm 420.00 W/m2 CLR
09:35 25.6 °C 20.4 °C 1016.5 hPa North 8.0 km/h 14.5 km/h 73% 0.0 mm 440.40 W/m2 CLR
09:40 25.8 °C 20.6 °C 1016.5 hPa North 8.0 km/h 19.3 km/h 73% 0.0 mm 462.00 W/m2 CLR
09:45 25.9 °C 20.5 °C 1016.4 hPa North 9.7 km/h 14.5 km/h 72% 0.0 mm 481.20 W/m2 CLR
09:50 26.1 °C 20.7 °C 1016.5 hPa North 4.8 km/h 19.3 km/h 72% 0.0 mm 500.40 W/m2 CLR
09:55 26.3 °C 20.6 °C 1016.5 hPa NNW 11.3 km/h 22.5 km/h 71% 0.0 mm 520.80 W/m2 CLR
10:00 26.3 °C 20.7 °C 1016.5 hPa North 8.0 km/h 19.3 km/h 71% 0.0 mm 537.60 W/m2 CLR
10:05 26.4 °C 20.8 °C 1016.6 hPa North 8.0 km/h 20.9 km/h 71% 0.0 mm 556.80 W/m2 CLR
10:10 26.6 °C 20.6 °C 1016.6 hPa NNW 11.3 km/h 20.9 km/h 70% 0.0 mm 578.40 W/m2 CLR
10:15 26.7 °C 20.7 °C 1016.6 hPa NNW 9.7 km/h 19.3 km/h 70% 0.0 mm 598.80 W/m2 CLR
10:20 26.8 °C 20.9 °C 1016.7 hPa NNW 8.0 km/h 19.3 km/h 70% 0.0 mm 618.00 W/m2 CLR
10:25 27.0 °C 20.8 °C 1016.8 hPa NNW 9.7 km/h 19.3 km/h 69% 0.0 mm 637.20 W/m2 CLR
10:30 27.2 °C 21.1 °C 1016.8 hPa NNW 4.8 km/h 14.5 km/h 69% 0.0 mm 656.40 W/m2 CLR
10:35 27.4 °C 21.0 °C 1016.8 hPa North 8.0 km/h 16.1 km/h 68% 0.0 mm 670.80 W/m2 CLR
10:40 27.6 °C 20.9 °C 1016.9 hPa North 9.7 km/h 16.1 km/h 67% 0.0 mm 687.60 W/m2 CLR
10:45 27.8 °C 20.8 °C 1016.8 hPa NNE 9.7 km/h 16.1 km/h 66% 0.0 mm 710.40 W/m2 CLR
10:50 27.9 °C 20.7 °C 1017.0 hPa North 9.7 km/h 16.1 km/h 65% 0.0 mm 729.60 W/m2 CLR
10:55 28.1 °C 20.6 °C 1016.9 hPa North 4.8 km/h 19.3 km/h 64% 0.0 mm 748.80 W/m2 CLR
11:00 28.3 °C 20.6 °C 1016.8 hPa NNE 8.0 km/h 16.1 km/h 63% 0.0 mm 762.00 W/m2 CLR
11:05 28.5 °C 20.8 °C 1016.8 hPa NNE 8.0 km/h 16.1 km/h 63% 0.0 mm 787.20 W/m2 CLR
11:10 28.7 °C 20.4 °C 1016.8 hPa North 4.8 km/h 14.5 km/h 61% 0.0 mm 795.60 W/m2 CLR
11:15 28.9 °C 20.4 °C 1016.9 hPa NNE 11.3 km/h 16.1 km/h 60% 0.0 mm 823.20 W/m2 CLR
11:20 29.2 °C 20.1 °C 1016.8 hPa NE 4.8 km/h 19.3 km/h 58% 0.0 mm 860.40 W/m2 CLR
11:25 29.4 °C 20.5 °C 1016.8 hPa NE 4.8 km/h 14.5 km/h 59% 0.0 mm 873.60 W/m2 CLR
11:30 29.6 °C 20.8 °C 1016.8 hPa NE 4.8 km/h 9.7 km/h 59% 0.0 mm 909.60 W/m2 CLR
11:35 29.8 °C 20.4 °C 1016.8 hPa NE 8.0 km/h 19.3 km/h 57% 0.0 mm 949.20 W/m2 CLR
11:40 29.9 °C 20.2 °C 1017.0 hPa ENE 4.8 km/h 14.5 km/h 56% 0.0 mm 945.60 W/m2 CLR
11:45 30.2 °C 20.1 °C 1016.9 hPa NE 8.0 km/h 16.1 km/h 55% 0.0 mm 866.40 W/m2 CLR
11:50 30.4 °C 20.6 °C 1016.9 hPa NE 3.2 km/h 9.7 km/h 56% 0.0 mm 980.40 W/m2 CLR
11:55 30.4 °C 20.1 °C 1016.8 hPa NNE 8.0 km/h 20.9 km/h 54% 0.0 mm 997.20 W/m2 CLR
12:00 30.6 °C 20.2 °C 1016.8 hPa NNE 9.7 km/h 19.3 km/h 54% 0.0 mm 1029.60 W/m2 CLR
12:05 30.7 °C 20.3 °C 1016.8 hPa North 9.7 km/h 19.3 km/h 54% 0.0 mm 1050.00 W/m2 CLR
12:10 30.6 °C 20.2 °C 1016.8 hPa NE 9.7 km/h 19.3 km/h 54% 0.0 mm 228.00 W/m2 OVC
12:15 30.3 °C 20.3 °C 1016.7 hPa NE 3.2 km/h 9.7 km/h 55% 0.0 mm 234.00 W/m2 OVC
12:20 30.2 °C 20.2 °C 1016.7 hPa NNE 4.8 km/h 19.3 km/h 55% 0.0 mm 295.20 W/m2 BKN
12:25 30.0 °C 19.7 °C 1016.7 hPa ENE 3.2 km/h 19.3 km/h 54% 0.0 mm 213.60 W/m2 OVC
12:30 30.1 °C 20.1 °C 1016.8 hPa ENE 8.0 km/h 14.5 km/h 55% 0.0 mm 1204.80 W/m2 CLR
12:35 30.0 °C 20.0 °C 1016.7 hPa ENE 3.2 km/h 14.5 km/h 55% 0.0 mm 219.60 W/m2 OVC
12:40 29.8 °C 19.8 °C 1016.7 hPa ENE 8.0 km/h 16.1 km/h 55% 0.0 mm 390.00 W/m2 BKN
12:45 29.7 °C 20.0 °C 1016.7 hPa NNE 4.8 km/h 12.9 km/h 56% 0.0 mm 250.80 W/m2 OVC
12:50 29.6 °C 19.8 °C 1016.6 hPa NNE 8.0 km/h 14.5 km/h 56% 0.0 mm 217.20 W/m2 OVC
12:55 29.5 °C 20.1 °C 1016.6 hPa NE 4.8 km/h 12.9 km/h 57% 0.0 mm 1213.20 W/m2 CLR
13:00 29.9 °C 20.5 °C 1016.6 hPa ENE 8.0 km/h 14.5 km/h 57% 0.0 mm 1206.00 W/m2 CLR
13:05 30.4 °C 20.1 °C 1016.6 hPa ENE 9.7 km/h 16.1 km/h 54% 0.0 mm 1171.20 W/m2 CLR
13:10 30.8 °C 20.4 °C 1016.5 hPa NE 11.3 km/h 16.1 km/h 54% 0.0 mm 1206.00 W/m2 CLR
13:15 30.8 °C 19.8 °C 1016.5 hPa NE 9.7 km/h 19.3 km/h 52% 0.0 mm 205.20 W/m2 OVC
13:20 30.5 °C 19.8 °C 1016.4 hPa NE 4.8 km/h 19.3 km/h 53% 0.0 mm 291.60 W/m2 OVC
13:25 30.2 °C 19.9 °C 1016.4 hPa NE 8.0 km/h 14.5 km/h 54% 0.0 mm 339.60 W/m2 BKN
13:30 30.1 °C 19.8 °C 1016.4 hPa NE 3.2 km/h 9.7 km/h 54% 0.0 mm 344.40 W/m2 BKN
13:35 30.3 °C 19.9 °C 1016.4 hPa NE 4.8 km/h 8.0 km/h 54% 0.0 mm 1266.00 W/m2 CLR
Juneau County Weather
Compliments of Weather Underground - 12 mb

past weather